Weather Roundup
Issued by NWS Chicago, IL

Home | Current Version | Previous Version | Graphics & Text | Print | Product List | Glossary On
Versions: 1 2 3 4 5 6 7 8 9 10 11 12 13 14 15 16 17 18 19 20 21 22 23 24 25 26 27 28 29 30 31 32 33 34 35 36 37 38 39 40 41 42 43 44 45 46 47 48 49 50
000
NZUS59 KLOT 310106
HRRLOT

CHICAGO AREA WEATHER ROUNDUP
NATIONAL WEATHER SERVICE CHICAGO/ROMEOVILLE IL
700 PM CST FRI JAN 30 2015

NOTE: "FAIR" INDICATES FEW OR NO CLOUDS BELOW 12,000 FEET WITH NO
SIGNIFICANT WEATHER AND/OR OBSTRUCTIONS TO VISIBILITY.

* THESE STATIONS ARE NOT UNDER NWS QUALITY CONTROL. THEY ALSO MAY NOT
  REPORT WEATHER SUCH AS PRECIPITATION OR FOG.

ILZ005-006-012>014-019>023-310200-
NORTHEAST ILLINOIS

CITY           SKY/WX    TMP DP  RH WIND       PRES   REMARKS
OHARE          PTCLDY    23  11  60 W6        30.41F WCI  16
MIDWAY         PTCLDY    27  14  58 W8        30.43S WCI  19
AURORA         CLEAR     23  14  68 SW3       30.43S
LANSING*       CLEAR     24  16  70 CALM      30.44R
JOLIET*        CLEAR     24  15  68 CALM      30.45R
WAUKEGAN       CLEAR     22  10  60 CALM      30.41S
DUPAGE AIRPORT CLEAR     21  13  71 SW7       30.41F WCI  12
WHEELING       CLEAR     24  10  55 CALM      30.43S
KANKAKEE*      CLEAR     26  20  80 CALM      30.45S
MORRIS*        CLEAR     24  20  83 CALM      30.44S
LEWIS AIRPORT* CLEAR     23  15  70 W5        30.43F WCI  17
NORTHERLY IS     N/A     25  16  68 S5          N/A  WCI  19
$$

WIZ051-052-058>065-066-070>072-310200-
SOUTHEAST WISCONSIN

CITY           SKY/WX    TMP DP  RH WIND       PRES   REMARKS
MILWAUKEE      MOCLDY    24   8  50 W7        30.40S WCI  16
KENOSHA*       CLEAR     22  12  65 W3        30.41R
RACINE*        PTCLDY    24  10  55 SW3       30.42S
BURLINGTON     PTCLDY    17   9  70 CALM      30.40S
WAUKESHA       CLEAR     19   9  63 CALM      30.39F
WEST BEND      CLOUDY    21  10  63 CALM      30.38S
$$

INZ001>003-010>013-019-020-310200-
NORTHWEST INDIANA

CITY           SKY/WX    TMP DP  RH WIND       PRES   REMARKS
GARY*          CLEAR     21  14  73 SE3       30.44S
MICHIGAN CITY* NOT AVBL
RENSSELAER*    NOT AVBL
VALPARAISO     CLEAR     21  14  74 S3        30.43R
$$

LMZ740>746-310200-
SOUTHERN LAKE MICHIGAN

STATION/POSITION TIME  SKY/WX   TEMP WIND        PRES    VSBY
                                AIR  DIR/SP/G
                 (UTC)          (F)  (DEG/KT/KT) (MB)    (MI)
HARRISON CRIB    0100            26  170/ 10/ 11   N/A
BURNHAM HARBOR   0100            26  180/  3/  6   N/A
CALUMET HARBOR   0100            26  190/  3/  4   N/A
BURNS HARBOR     NOT AVBL
MICHIGAN CITY    0100            24  110/  3/  3   N/A
$$

ABBREVIATIONS USED IN REMARKS
   TC - TEMPERATURE IN CELSIUS
  WCI - WIND CHILL INDEX
   HX - HEAT INDEX
  VSB - VISIBILITY
$$


USA.gov is the U.S. government's official web portal to all federal, state and local government web resources and services.